Showing default

SPACEMOBILE-013, 100240

Orbit data source: Space-Track

SPACEMOBILE-013, 100240 is a payload satellite owned by AST & Science (US) in LEO that was launched on Wed, 05 Aug 2026 UTC launched from the Air Force Eastern Test Range (AFETR). Payload-class satellites include a variety of spacecraft equipped with specific instruments for various scientific and technological missions. These include communications satellites like Starlink; space stations such as the ISS; scientific satellites like the Hubble; Earth observation satellites from companies like Planet Labs, Umbra, and HawkEye 360; GPS; miniature CubeSats for education and research; and military/defense satellites.

Loading next visibility...
Identifier
100240, 2026-179A
Orbit
LEO
Country
Flag of USUS
Related business
Manufacturer
AST & Science
Mission
Operational spacecraft
Bus & Motor
BB BLOCK-2, EP
Mass
6,740 kg wet, 5,830 kg dry
Launch date (UTC)
2026-08-05 (2 months ago)
Launch vehicle
Unknown
Launch site
Air Force Eastern Test Range (AFETR)
Object type
Payload
Rocket body
Debris
Shape & HBR
CYL + 2 PAN + PLATE, 14.5 m
Radar Cross Section
Large (>1 m²)

Expand to show TLE details & history
Last TLE update: 13 hours ago

TLE from 13 hours ago
0 SPACEMOBILE-013
1 A0240U 26179A   26263.88967291  .00000887  00000-0  66401-4 0  9994
2 A0240  52.9954 116.5479 0007350 107.5368 252.6427 15.13135241  7056
Epoch: 2026-09-20T21:21Z
TLE epoch observation values (Epoch: 2026-09-20T21:21:07.739Z)
Latitude
Longitude
156.48828°
Altitude
529.038 km
Speed
7.599 km/s
True Right ascension
07h 46m 11s
True Declination
0° 00' 00"
Sunlit
Object was in daylight at epoch
Visualization orbit readout
Latitude
Unknown
Longitude
Unknown
Altitude
Unknown
Speed
Unknown
Apparent Right ascension
Unknown
Apparent Declination
Unknown
Sunlit
N/A
Visualization observer readout
Local Sidereal Time
03:10:05
Azimuth
Unknown
Elevation
Unknown
Doppler factor
Unknown
Orbital elements
Apogee altitude
532.002 km
Perigee altitude
521.851 km
Semi-major axis
6,905.064 km
Eccentricity
0.00074
Inclination
52.9954°
RAAN
116.5479°
Arg. of periapsis
107.5368°
True anomaly
252.56233°
Mean anomaly
252.6427°
Eccentric anomaly
252.60251°
Mean motion
3.78261 °/min
Orbital period
95.17 mins
BSTAR
0.000066401
Loading maneuver chart data...
Computing Atmospheric mass density...
Loading historical data...
Loading historical data...
Loading historical data...
Loading historical data...
Loading historical data...
Loading historical data...
Loading historical data...
Other satellites on launch #179 in the year 2026 (2026-08-05 UTC)

Documentation

Showing up to 5 results
|